[[{"header":{"parameterUnit":"m.s-1","parameterCategory":1,"la1":30.2991,"la2":30.254,"lo1":-89.0895,"lo2":-89.0444,"dy":0.0017,"dx":0.0017,"nx":28,"ny":28,"refTime":"2025-06-13T09:00:00:Z","depth":0,"parameterNumber":2,"parameterNumberName":"U-component_of_WINDS"},"data":[0,0,0,0,0,0,0,0,0,0,0,0,0,0,0,0,0,0,0,0,0,0,0,0,0,0,0,0,0,0,0,0,0,0,0,0,0,0,0,0,0,0,0,0,0,0,0,0,0,0,0,0,0,0,0,0,0,0,2.6258,2.6258,0,2.6252,2.6252,2.6252,2.6113,2.611,2.6106,2.6103,2.6102,2.6105,2.6108,0,0,0,0,0,0,0,0,0,0,0,0,0,2.6152,2.6155,2.6258,2.6258,2.6258,2.6252,2.6252,2.6252,2.6114,2.6109,2.6105,2.6101,2.6101,2.6105,2.6109,0,0,0,0,0,0,0,0,0,0,0,0,0,2.6178,2.6156,2.6258,2.6188,2.6182,2.6252,2.6252,2.6252,2.6115,2.6109,2.6104,2.6099,2.6099,2.6104,2.6109,2.6248,0,0,2.6125,2.6127,0,0,0,0,0,0,0,0,2.6176,2.6182,2.6199,2.6193,2.6186,2.6178,2.6214,2.6251,2.6116,2.614,2.6102,2.6096,2.6132,2.6134,2.6145,2.6248,2.6248,2.6125,2.6128,2.613,2.6132,0,0,0,0,0,0,0,2.6175,2.6181,2.6256,2.6199,2.6191,2.6158,2.6156,2.6221,2.6167,2.6138,2.6128,2.6129,2.6127,2.614,2.6144,2.6248,2.6125,2.6129,2.6132,2.6134,2.6461,2.6467,0,0,0,0,0,0,2.6182,2.6181,2.6256,2.6256,2.6168,2.6164,2.6161,2.6186,2.6165,2.6157,2.6133,2.6122,2.6134,2.6138,2.6143,2.6301,2.613,2.6135,2.6138,2.6456,2.6462,2.6469,0,0,0,0,0,0,2.618,2.619,2.6256,2.6215,2.6221,2.6172,2.62,2.6189,2.6201,2.6162,2.6152,2.6156,2.613,2.6136,2.6222,2.63,2.6137,2.6142,2.6449,2.6458,2.6465,2.6621,0,0,0,0,0,0,2.6178,2.619,2.6242,2.6218,2.6224,2.6335,2.6205,2.6193,2.621,2.6195,2.6181,2.6173,2.6126,2.6215,2.6227,2.6303,2.6145,2.6442,2.6453,2.6463,2.6609,2.6634,2.6656,0,0,0,0,0,2.6175,2.6289,2.6246,2.6256,2.6288,2.634,2.6343,2.6286,2.6217,2.6268,2.6242,2.6174,2.629,2.6225,2.6237,2.6317,2.6436,2.645,2.6462,2.6599,2.6629,2.6655,0,0,0,0,0,0,2.6327,2.6284,2.6236,2.6345,2.6347,2.6316,2.638,2.6321,2.6344,2.6329,2.6258,2.6256,2.6353,2.6343,2.6272,2.6448,2.6351,2.6367,2.645,2.6479,2.6502,2.6502,2.615,0,0,0,0,0,2.6372,2.6417,2.6378,2.6478,2.6481,2.6431,2.6451,2.6406,2.6406,2.6406,2.6387,2.639,2.6427,2.6453,2.6485,2.6607,2.6601,2.6668,2.6691,2.671,2.6724,2.6786,2.6814,2.6511,2.651,2.651,0,0,2.6468,2.645,2.6483,2.6508,2.6504,2.6551,2.6432,2.6489,2.6524,2.6416,2.6493,2.648,2.6479,2.6583,2.6628,2.6578,2.6807,2.6727,2.6742,2.6746,2.6802,2.683,2.6856,2.6519,2.6518,2.6516,0,0,2.6666,2.6658,2.6738,2.6736,2.673,2.6695,2.6715,2.6693,2.6678,2.6755,2.6674,2.6715,2.6781,2.6782,2.6792,2.6987,2.6924,2.7,2.7121,2.7182,2.7206,2.7227,2.7294,2.7319,2.7014,2.7015,2.7015,0,2.6787,2.6854,2.6788,2.6849,2.6861,2.6762,2.6843,2.6845,2.6851,2.6862,2.6806,2.6883,2.6876,2.6977,2.7025,2.7037,2.7056,2.7001,2.7207,2.7228,2.7246,2.731,2.7335,2.7024,2.7023,2.7022,2.7021,0,2.7001,2.7049,2.7115,2.7119,2.7139,2.721,2.7155,2.7184,2.7137,2.7108,2.7187,2.7174,2.72,2.7221,2.7177,2.7316,2.7284,2.722,2.712,2.7285,2.7343,2.7368,2.7037,2.7034,2.7031,2.7029,0,0,2.7296,2.726,2.7285,2.7284,2.7269,2.7306,2.7372,2.7394,2.7419,2.7427,2.7479,2.7536,2.7474,2.7485,2.744,2.7493,2.7646,2.7421,2.742,2.7461,2.7795,2.7843,2.7872,2.7604,2.7609,2.7612,2.7794,0,2.7485,2.7592,2.7534,2.765,2.7692,2.7598,2.7655,2.7653,2.7627,2.766,2.7633,2.7673,2.759,2.7595,2.7644,2.7617,2.7712,2.7603,2.7652,2.7655,2.7653,2.7903,2.7954,2.8126,2.7817,2.7821,2.7823,0,2.772,2.7733,2.7853,2.7826,2.7842,2.7894,2.7908,2.7942,2.7936,2.7914,2.7925,2.7866,2.7929,2.7831,2.7916,2.7844,2.786,2.785,2.7855,2.7856,2.7748,2.7909,2.818,2.8205,2.7859,2.7856,2.7854,0,2.7919,2.7968,2.8044,2.8047,2.802,2.8058,2.8048,2.8037,2.8054,2.8067,2.8077,2.8099,2.8111,2.813,2.8079,2.8013,2.817,2.8068,2.8152,2.8154,2.8189,2.8187,2.8465,2.8203,2.8203,2.8202,2.8202,0,2.8136,2.8212,2.8133,2.818,2.8262,2.8194,2.8278,2.8259,2.825,2.8291,2.8213,2.8255,2.8185,2.822,2.8181,2.8256,2.8263,2.8246,2.8235,2.8252,2.8254,2.8261,2.8247,2.8209,2.8208,2.8206,2.8205,0,2.8372,2.8323,2.8399,2.8365,2.8358,2.842,2.8391,2.8434,2.8402,2.8456,2.8465,2.8416,2.8452,2.8403,2.8436,2.841,2.8511,2.8483,2.8512,2.8503,2.8589,2.8581,2.8879,2.8914,2.8633,2.8636,2.8638,0,2.8512,2.8568,2.8539,2.8559,2.8553,2.859,2.8604,2.854,2.8559,2.8555,2.8598,2.8627,2.8647,2.871,2.8678,2.8702,2.8672,2.8775,2.8675,2.869,2.8671,2.8667,2.8671,2.8795,2.8799,2.8801,2.8804,0,2.8766,2.8737,2.8761,2.8776,2.8795,2.8805,2.8808,2.8831,2.8762,2.8788,2.8823,2.8838,2.8869,2.8899,2.8913,2.8904,2.8843,2.8835,2.8855,2.8873,2.8886,2.8878,2.8565,2.8828,2.8826,2.8824,2.8823,2.8822,2.8956,2.9,2.8985,2.9013,2.9008,2.9013,2.905,2.9021,2.9048,2.9066,2.9027,2.9071,2.9062,2.9075,2.9073,2.9107,2.9062,2.9093,2.91,2.9108,2.912,2.8883,2.911,2.9109,2.9109,2.9108,2.9107,0,2.9203,2.9188,2.9214,2.922,2.9242,2.918,2.918,2.9203,2.9241,2.9238,2.9257,2.9296,2.9324,2.9293,2.9315,2.9348,2.932,2.9356,2.9352,2.935,2.916,2.9139,2.9378,2.9378,2.9378,2.9378,2.9378,2.9378,2.9334,2.9403,2.9373,2.9439,2.9424,2.9463,2.9469,2.9472,2.9468,2.9514,2.9535,2.9514,2.9499,2.9519,2.9542,2.9532,2.9543,2.9588,2.9569,2.9391,2.9364,2.9339,2.9319,2.9592,2.9592,2.9756,2.9758,2.9759]},{"header":{"parameterUnit":"m.s-1","parameterCategory":1,"la1":30.2991,"la2":30.254,"lo1":-89.0895,"lo2":-89.0444,"dy":0.0017,"dx":0.0017,"nx":28,"ny":28,"refTime":"2025-06-13T09:00:00:Z","depth":0,"parameterNumber":3,"parameterNumberName":"V-component_of_WINDS"},"data":[0,0,0,0,0,0,0,0,0,0,0,0,0,0,0,0,0,0,0,0,0,0,0,0,0,0,0,0,0,0,0,0,0,0,0,0,0,0,0,0,0,0,0,0,0,0,0,0,0,0,0,0,0,0,0,0,0,0,2.8461,2.8463,0,2.8576,2.8578,2.8579,2.8572,2.8571,2.8569,2.8567,2.8684,2.8689,2.8693,0,0,0,0,0,0,0,0,0,0,0,0,0,2.8233,2.8238,2.8461,2.8463,2.8464,2.8576,2.8578,2.8579,2.8573,2.8571,2.8569,2.8567,2.8683,2.8688,2.8694,0,0,0,0,0,0,0,0,0,0,0,0,0,2.8339,2.8239,2.8461,2.8474,2.8477,2.8576,2.8578,2.858,2.8573,2.857,2.8568,2.8566,2.8681,2.8688,2.8694,2.8788,0,0,2.8716,2.8719,0,0,0,0,0,0,0,0,2.8333,2.8347,2.8471,2.8474,2.8476,2.8557,2.854,2.8649,2.8574,2.8536,2.8567,2.8564,2.8644,2.8654,2.8681,2.8793,2.8798,2.8716,2.8721,2.8724,2.8726,0,0,0,0,0,0,0,2.8325,2.8342,2.8507,2.8473,2.8476,2.8474,2.8486,2.8561,2.8603,2.8539,2.8539,2.8553,2.8645,2.8674,2.8684,2.88,2.8716,2.8722,2.8727,2.8729,2.8992,2.8995,0,0,0,0,0,0,2.8315,2.8336,2.8503,2.851,2.8397,2.848,2.8494,2.8534,2.8602,2.861,2.8555,2.8552,2.8663,2.8675,2.8688,2.88,2.8724,2.873,2.8734,2.8989,2.8993,2.8996,0,0,0,0,0,0,2.8311,2.833,2.8499,2.8423,2.8444,2.8486,2.8532,2.8538,2.8567,2.8614,2.8621,2.8577,2.8662,2.8678,2.8762,2.8804,2.8733,2.874,2.8986,2.899,2.8994,2.9026,0,0,0,0,0,0,2.8304,2.8329,2.8365,2.8424,2.8448,2.8572,2.8535,2.8542,2.8579,2.8576,2.8637,2.8644,2.8661,2.8752,2.8769,2.8812,2.8745,2.8982,2.8988,2.8993,2.9021,2.903,2.9038,0,0,0,0,0,2.8296,2.837,2.8367,2.8388,2.8495,2.8575,2.8589,2.8607,2.8582,2.8619,2.8649,2.8642,2.8796,2.8761,2.878,2.8826,2.898,2.8986,2.8992,2.9017,2.9028,2.9038,0,0,0,0,0,0,2.8315,2.8378,2.8376,2.8471,2.8518,2.8573,2.862,2.8619,2.8673,2.8669,2.8689,2.8702,2.8787,2.8815,2.8774,2.8918,2.8885,2.8895,2.8897,2.8908,2.8917,2.8908,2.8751,0,0,0,0,0,2.8331,2.8391,2.8442,2.8521,2.8544,2.8578,2.8614,2.8624,2.8673,2.8692,2.8728,2.8776,2.8834,2.8873,2.893,2.9025,2.9037,2.9066,2.9074,2.9081,2.909,2.914,2.9153,2.9016,2.9016,2.9016,0,0,2.8363,2.8405,2.8441,2.8526,2.8563,2.8624,2.8595,2.8661,2.8706,2.8702,2.8784,2.8812,2.8866,2.8956,2.8997,2.8981,2.913,2.9089,2.9094,2.9099,2.9148,2.9161,2.9172,2.902,2.902,2.9019,0,0,2.8452,2.8491,2.856,2.8597,2.8654,2.8676,2.8692,2.8748,2.8767,2.8849,2.8847,2.89,2.9002,2.904,2.9072,2.9174,2.9169,2.9192,2.9237,2.9285,2.9296,2.9306,2.934,2.9353,2.92,2.92,2.92,0,2.8485,2.8577,2.8596,2.8661,2.8698,2.8697,2.8766,2.8802,2.8874,2.8899,2.888,2.9006,2.9043,2.914,2.9165,2.9192,2.921,2.9185,2.9293,2.9303,2.9312,2.9346,2.9359,2.9203,2.9202,2.9202,2.9202,0,2.8614,2.8678,2.8727,2.8796,2.8838,2.8905,2.8932,2.8972,2.8978,2.9002,2.9084,2.9128,2.9192,2.9216,2.9223,2.9315,2.9303,2.9289,2.9256,2.9327,2.9359,2.9372,2.9206,2.9205,2.9204,2.9204,0,0,2.872,2.8797,2.8815,2.8845,2.8907,2.8956,2.9022,2.9085,2.9119,2.9168,2.9223,2.9308,2.9295,2.9332,2.9342,2.9385,2.9461,2.9366,2.9367,2.9381,2.9562,2.9572,2.9586,2.9458,2.9461,2.9463,2.9557,0,2.8815,2.8933,2.895,2.9054,2.9112,2.9111,2.9169,2.9212,2.9235,2.9287,2.9312,2.9371,2.935,2.9372,2.9415,2.9443,2.9497,2.9436,2.9509,2.9511,2.9494,2.9603,2.9614,2.9701,2.957,2.9572,2.9574,0,2.8942,2.8994,2.9103,2.9155,2.918,2.9231,2.9289,2.9339,2.9388,2.9401,2.9442,2.9447,2.9514,2.9478,2.957,2.9528,2.9558,2.9577,2.958,2.9587,2.9546,2.9612,2.973,2.9742,2.9594,2.9592,2.959,0,2.9006,2.9104,2.9181,2.9208,2.927,2.9306,2.9334,2.938,2.9416,2.9466,2.949,2.9548,2.9579,2.9623,2.9643,2.9616,2.9734,2.97,2.9746,2.9745,2.977,2.9768,2.9893,2.9792,2.9791,2.9791,2.9791,0,2.911,2.9176,2.9211,2.9258,2.9332,2.9351,2.9423,2.945,2.949,2.9542,2.9545,2.9593,2.9617,2.9669,2.9685,2.9757,2.9772,2.9784,2.9787,2.9783,2.9782,2.9803,2.9797,2.9795,2.9794,2.9793,2.9793,0,2.9194,2.922,2.9304,2.9356,2.9371,2.9423,2.9466,2.9512,2.9534,2.9599,2.9616,2.965,2.9711,2.9735,2.981,2.9821,2.9904,2.9903,2.9888,2.9888,2.9933,2.9928,3.0075,3.0095,2.9981,2.9982,2.9983,0,2.9258,2.9309,2.9366,2.9401,2.943,2.9486,2.9523,2.9542,2.958,2.9638,2.9676,2.9737,2.9786,2.9883,2.9914,2.9971,2.9971,3.0018,2.9979,2.9973,2.997,2.9966,2.997,3.0025,3.0027,3.0027,3.0028,0,2.9369,2.9379,2.9432,2.9488,2.9532,2.9578,2.9622,2.9651,2.9677,2.9719,2.9781,2.9819,2.9895,2.9954,3.0012,3.0039,3.0038,3.004,3.0054,3.005,3.0038,3.0043,2.9906,3.0037,3.0036,3.0035,3.0035,3.0034,2.9444,2.9489,2.9535,2.9593,2.9629,2.967,2.9715,2.9742,2.9794,2.9857,2.9865,2.9931,2.9976,3.0053,3.0083,3.0134,3.0122,3.0142,3.0146,3.0151,3.0153,3.003,3.0145,3.0145,3.0145,3.0145,3.0144,0,2.9554,2.9583,2.9636,2.9698,2.9743,2.9738,2.9786,2.9824,2.9883,2.9925,2.9973,3.0043,3.01,3.0136,3.0193,3.0227,3.0228,3.0241,3.0239,3.0245,3.0162,3.0144,3.024,3.024,3.024,3.024,3.024,3.024,2.9616,2.969,2.9705,2.9796,2.9825,2.989,2.9918,2.9955,2.9989,3.0067,3.0114,3.0137,3.0176,3.0236,3.0287,3.0296,3.0317,3.0331,3.0339,3.0261,3.0251,3.0241,3.0224,3.0336,3.0336,3.0417,3.0418,3.0418]}]]